Home   Weather   Kreuzlingen   Past weeks

Flag for Switzerland Past Weather in Kreuzlingen, Thurgau, Switzerland — Yesterday and Last 2 Weeks

Now
41 °F

Mostly cloudy.


Feels Like: 39 °F
Forecast: 23 / 52 °F
Wind: 3 mph from North

Location: Friedrichshafen Airport

Current Time: Apr 28, 2017 at 4:37:44 pm

Latest Report: Apr 28, 2017 at 3:50 pm


Visibility: N/A

Pressure: 29.98 "Hg

Humidity: 87%

Dew Point: 37 °F

Location of KreuzlingenLocation

Past Weather in Kreuzlingen — Graph

°F

Kreuzlingen Temperature Yesterday

Maximum temperature yesterday: 41 °F (at 1:20 pm)
Minimum temperature yesterday: 34 °F (at 10:50 pm)
Average temperature yesterday: 37 °F

High & Low Weather Summary for the Past Weeks

 TemperatureHumidityPressure
High64 °F (Apr 13, 4:20 pm)100% (Apr 16, 6:50 am)30.51 "Hg (Apr 16, 6:50 am)
Low25 °F (Apr 21, 5:50 am)11% (Apr 21, 4:50 pm)29.71 "Hg (Apr 26, 12:05 am)
Average43 °F76%30.10 "Hg
* Reported Apr 13 2:20 pm — Apr 28 2:50 pm, Kreuzlingen, Weather by CustomWeather, © 2017

Note: Actual official high and low records may vary slightly from our data, if they occured in-between our weather recording intervals... More about our weather records

Advertising

Kreuzlingen Weather History for the Previous 24 Hours

Scroll right to see more
 ConditionsComfort  
Time TempWeatherWind HumidityBarometerVisibility
2:50 pm
Fri, Apr 28
39 °FLight rain. Overcast.2 mph93%29.98 "HgN/A
2:20 pm39 °FLight rain. Cloudy.1 mph87%29.98 "HgN/A
1:20 pm36 °FLight rain. Mostly cloudy.2 mph93%29.95 "Hg5 mi
12:50 pm36 °FLight rain. Mostly cloudy.3 mph93%29.95 "HgN/A
12:20 pm36 °FLight rain. Low clouds.2 mph93%29.92 "Hg5 mi
11:50 am36 °FLight rain. More clouds than sun.No wind93%29.92 "Hg4 mi
11:20 am34 °FLight rain. Mostly cloudy.No wind100%29.89 "Hg3 mi
10:50 am34 °FLight rain. Fog.1 mph93%29.89 "Hg1 mi
10:20 am32 °FLight rain. Ice fog.2 mph100%29.89 "Hg1 mi
9:20 am32 °FLight snow. Ice fog.1 mph100%29.89 "Hg1 mi
8:50 am32 °FLight snow. Ice fog.1 mph100%29.86 "Hg1 mi
8:20 am32 °FLight snow. Ice fog.1 mph100%29.86 "Hg1 mi
7:50 am32 °FLight snow. Ice fog.No wind100%29.86 "Hg1 mi
7:20 am32 °FLight rain. Ice fog.1 mph100%29.86 "Hg1 mi
6:50 am32 °FLight rain. Ice fog.1 mph100%29.86 "Hg2 mi
6:20 am34 °FLight rain. Fog.2 mph93%29.86 "Hg2 mi
5:50 am34 °FLight rain. Fog.2 mph93%29.86 "Hg2 mi
5:20 am32 °FLight rain. Ice fog.1 mph100%29.86 "Hg2 mi
4:50 am34 °FLight rain. Fog.2 mph93%29.86 "Hg2 mi
4:20 am34 °FLight rain. Fog.2 mph93%29.86 "Hg2 mi
3:50 am34 °FLight rain. Low clouds.2 mph100%29.86 "Hg4 mi
3:20 am36 °FLight rain. Overcast.1 mph93%29.86 "Hg4 mi
2:50 am36 °FLight rain. Mostly cloudy.1 mph93%29.86 "Hg4 mi
2:20 am36 °FLight rain. Mostly cloudy.1 mph93%29.86 "HgN/A
1:50 am36 °FLight rain. Mostly cloudy.2 mph93%29.86 "Hg5 mi
1:20 am36 °FLight rain. Mostly cloudy.2 mph93%29.89 "Hg4 mi
12:50 am36 °FLight rain. Mostly cloudy.1 mph93%29.89 "Hg4 mi
12:20 am34 °FLight rain. Mostly cloudy.2 mph100%29.92 "Hg4 mi
11:50 pm
Thu, Apr 27
34 °FLight rain. Mostly cloudy.2 mph100%29.92 "Hg4 mi
11:20 pm34 °FLight snow. Mostly cloudy.2 mph100%29.92 "Hg4 mi
10:50 pm34 °FLight rain. Overcast.2 mph100%29.92 "Hg4 mi
10:20 pm36 °FLight rain. Overcast.3 mph93%29.92 "Hg3 mi
9:50 pm36 °FLight rain. Overcast.2 mph93%29.92 "Hg5 mi
9:20 pm36 °FLight rain. Low clouds.2 mph93%29.92 "Hg5 mi
8:50 pm36 °FLight rain. Mostly cloudy.3 mph100%29.92 "Hg4 mi
8:20 pm37 °FLight rain. More clouds than sun.3 mph93%29.92 "Hg5 mi
7:50 pm37 °FLight rain. Mostly cloudy.2 mph93%29.92 "Hg5 mi
7:20 pm37 °FLight rain. More clouds than sun.2 mph93%29.92 "Hg5 mi
6:50 pm37 °FLight rain. More clouds than sun.3 mph93%29.92 "Hg5 mi
6:20 pm39 °FLight rain. Low clouds.2 mph93%29.92 "Hg5 mi
5:50 pm39 °FLight rain. Low clouds.3 mph93%29.92 "Hg5 mi
5:20 pm39 °FLight rain. Overcast.2 mph93%29.95 "Hg5 mi
4:50 pm39 °FLight rain. Cloudy.3 mph93%29.95 "Hg5 mi
4:20 pm39 °FLight rain. Cloudy.5 mph93%29.95 "HgN/A
Weather by CustomWeather, © 2017

See weather overviewHow to use our weather pages